Regional Weather Roundup
Issued by NWS

Home | Current Version | Previous Version | Text Only | Print | Product List | Glossary Off
Versions: 1 2 3 4 5 6 7 8 9 10 11 12 13 14 15 16 17 18 19 20 21 22 23 24 25 26 27 28 29 30 31 32 33 34 35 36 37 38 39 40 41 42 43 44 45 46 47 48 49 50

000
ASUS43 KDMX 230301
RWRIA

WEATHER ROUNDUP FOR IOWA
NATIONAL WEATHER SERVICE DES MOINES IA
1000 PM CDT THU JUN 22 2017

NOTE: "FAIR" INDICATES FEW OR NO CLOUDS BELOW 12,000 FEET WITH NO
SIGNIFICANT WEATHER AND/OR OBSTRUCTIONS TO VISIBILITY.

* - THESE STATIONS ARE NOT NWS STATIONS...THUS NOT UNDER NWS
QUALITY CONTROL.  THEY ALSO DO NOT REPORT WEATHER SUCH
AS PRECIPITATION OR FOG.

IAZ001>003-012>014-020>022-031>034-043>046-230400-
   NORTHWEST IOWA

CITY           SKY/WX    TMP DP  RH WIND       PRES   REMARKS
CARROLL *      CLOUDY    72  66  83 N17       29.74R
CHEROKEE *     CLEAR     67  63  86 N7        29.78R
DENISON *      CLOUDY    72  64  78 N17G23    29.76R
LE MARS *      MOCLDY    70  61  73 N6        29.80R
ORANGE CITY *  PTCLDY    68  57  68 N8        29.80R
SHELDON *      CLOUDY    66  55  68 N10       29.79R
SIOUX CITY       N/A    N/A N/A N/A MISG      29.78R
SPENCER        CLEAR     67  57  70 N13       29.79R
STORM LAKE *   CLEAR     68  61  77 N14       29.78R
$$

IAZ055>058-069>071-079>083-090>094-230400-
   SOUTHWEST IOWA

CITY           SKY/WX    TMP DP  RH WIND       PRES   REMARKS
ATLANTIC *     CLOUDY    75  70  83 N6        29.70R
AUDUBON *      CLOUDY    73  70  88 CALM      29.74R
CLARINDA *     CLOUDY    79  73  83 S3        29.69R HX  82
COUNCIL BLFS * CLOUDY    81  72  74 N8        29.70R HX  84
CRESTON *      CLEAR     77  72  83 S9        29.70R
HARLAN  *      PTCLDY    77  70  78 N14       29.75R
LAMONI         CLEAR     78  71  79 S9        29.69R HX  80
RED OAK *      CLOUDY    79  72  78 CALM      29.67R HX  82
SHENANDOAH *   MOCLDY    79  72  78 SE5       29.66R HX  82
$$

IAZ047>049-059>061-072>074-084-230400-
   CENTRAL IOWA

CITY           SKY/WX    TMP DP  RH WIND       PRES   REMARKS
AMES           LGT RAIN  78  73  84 W7        29.67R HX  81
ANKENY *       CLOUDY    81  72  74 SW5       29.68R HX  84
BOONE *        RAIN      73  72  94 NW18G29   29.71R
CHARITON *     CLEAR     77  72  83 S5        29.70R
DES MOINES     MOCLDY    81  71  71 S9        29.65R HX  85
GRINNELL*      PTCLDY    76  71  82 S6        29.68R
KNOXVILLE *    CLEAR     77  70  78 S6        29.67R
MARSHALLTOWN   MOCLDY    79  72  79 SE6       29.66R HX  82
NEWTON *       PTCLDY    75  72  88 S7        29.67R
PELLA *        CLEAR     79  69  72 S6        29.69R HX  81
PERRY *        MOCLDY    71  68  90 N10       29.70R
$$

IAZ004>006-015-016-023>025-035-036-230400-
   NORTH CENTRAL IOWA

CITY           SKY/WX    TMP DP  RH WIND       PRES   REMARKS
ALGONA *       CLOUDY    68  64  88 N10       29.77R
CLARION *        N/A     70  68  94 N14G24    29.73R
ESTHERVILLE    CLEAR     63  60  90 N10       29.78R
FORT DODGE *   CLOUDY    70  63  78 N10G18    29.75R
MASON CITY     CLOUDY    68  65  90 N13       29.75
FOREST CITY *  CLOUDY    68  61  77 N10G18    29.75R
WEBSTER CITY * CLOUDY    72  66  83 N15G26    29.69R
IOWA FALLS *   MOCLDY    76  69  80 N9        29.70R
$$

IAZ007>011-017>019-026>030-037>042-050>054-066-230400-
   NORTHEAST IOWA

CITY           SKY/WX    TMP DP  RH WIND       PRES   REMARKS
CEDAR RAPIDS   PTCLDY    76  73  91 S5        29.67R
CHARLES CITY * CLOUDY    70  70 100 NE13      29.70R
CLINTON *      CLOUDY    76  72  87 S7        29.71R
DECORAH *      CLOUDY    68  68 100 CALM      29.69S FOG
DUBUQUE        CLEAR     74  70  87 S5        29.70R
MONTICELLO *   PTCLDY    75  72  88 SE6       29.68R
OELWEIN *      CLOUDY    72  70  94 SE6       29.68S
WATERLOO       CLOUDY    75  72  90 NE5       29.64R
$$

IAZ064-065-067-068-078-230400-
   EAST CENTRAL IOWA

CITY           SKY/WX    TMP DP  RH WIND       PRES   REMARKS
DAVENPORT      PTCLDY    77  71  82 S8        29.70R
IOWA CITY      PTCLDY    77  71  82 S6        29.69R
MT. PLEASANT * PTCLDY    74  70  86 S6        29.70S
MUSCATINE *    CLEAR     77  72  83 S5        29.68S
QUAD CITIES    PTCLDY    78  71  79 S5        29.69R HX  80
$$

IAZ062-063-075>077-085>089-095>099-230400-
   SOUTHEAST IOWA

CITY           SKY/WX    TMP DP  RH WIND       PRES   REMARKS
BURLINGTON     CLOUDY    77  73  87 S5        29.70S
FAIRFIELD *    CLOUDY    81  70  69 S8        29.69R HX  84
FORT MADISON * CLOUDY    79  73  83 CALM      29.71S HX  82
KEOKUK *       MOCLDY    79  73  83 S5        29.70R HX  82
OSKALOOSA *    MOCLDY    77  71  80 S6        29.69R
OTTUMWA        MOCLDY    79  72  79 S7        29.69R HX  82
WASHINGTON *   PTCLDY    77  72  83 S6        29.70R
$$

ABBREVIATIONS USED IN REMARKS
   TC - TEMPERATURES IN CELSIUS
  WCI - WIND CHILL INDEX
   HX - HEAT INDEX
  VSB - VISIBILITY
$$





USA.gov is the U.S. government's official web portal to all federal, state and local government web resources and services.